CORIOLIS

Last updated on Sun Apr 12 2026 00:03:41 GMT+0000 (Coordinated Universal Time)

1 27640U 03001A 26101.46644625 .00000113 00000+0 73726-4 0 9993 2 27640 98.7152 109.3648 0014841 48.6049 311.6400 14.19925940204750
UTC large
Height (km)
Speed (km/s)
/
Latitude / Longitude
Inclination (degrees)
Orbital Period (minutes)
Azimuth
Elevation
Range (km)
Doppler Factor

Next 0 passes for location: London (51.5072 / 0.1276)

Sorry there are no passes over London.
CORIOLIS